Location: Camps Bay
(33.9517°S, 18.3844°E)
Time: 21:13:56
(UTC+00:00)

EO 1 Delta rocket - Pass Details

Date: 18 January 2020
Orbit: 696 x 1793 km, 95.4° (Epoch: 16 February)

Event Time Altitude Azimuth Distance (km) Brightness Sun altitude
Rises 02:26:04 0° 13° (NNE) 3,193 7.0 -16.1°
Reaches altitude 10° 02:28:09 10° 14° (NNE) 2,349 6.3 -15.7°
Maximum altitude 02:33:18 82° 101° (E) 924 4.4 -14.9°
Drops below altitude 10° 02:39:51 10° 187° (S) 2,965 7.4 -13.8°
Sets 02:42:46 0° 187° (S) 4,098 8.2 -13.3°
